Vila Real, Portugal

5:41 PM WEST on March 26, 2017 (GMT +0100)
Vila Real

Weather History for LPVR - January, 2014

Change the Weather History Date:

Sunday, January 19, 2014

  Actual Average Record
Temperature  
Mean Temperature 42 °F -  
Max Temperature 46 °F - - ()
Min Temperature 37 °F - - ()
Degree Days  
Heating Degree Days 24    
Moisture  
Dew Point 35 °F    
Average Humidity 72    
Maximum Humidity 95    
Minimum Humidity 49    
Precipitation  
Precipitation 0.02 in - - ()
Sea Level Pressure  
Sea Level Pressure 29.70 in    
Wind  
Wind Speed 3 mph ()    
Max Wind Speed 7 mph    
Max Gust Speed -    
T = Trace of Precipitation, MM = Missing Value Source: Averaged Metar Reports

Daily Weather History Graph

Daily Weather History Graph

Search for Another Location

Airport or City:

Trip Planner

Search our weather history database for the weather conditions in past years. The results will help you decide how hot, cold, wet, or windy it might be!

Date:

Astronomy

Jan. 19, 2014 Rise Set
Actual Time 7:52 AM WET 5:31 PM WET
Civil Twilight 7:22 AM WET 6:01 PM WET
Nautical Twilight 6:48 AM WET 6:35 PM WET
Astronomical Twilight 6:15 AM WET 7:08 PM WET
Moon 8:58 PM WET (1/19) 9:13 AM WET (1/19)
Length of Visible Light 10h 39m
Length of Day
9h 38m
Waning Gibbous, 90% of the Moon is Illuminated
Jan 19
Waning Gibbous
Jan 24
Last Quarter
Jan 30
New
Feb 6
First Quarter
Feb 14
Full

Hourly Weather History & Observations

Time (WET) Temp. Dew Point Humidity Pressure Visibility Wind Dir Wind Speed Gust Speed Precip Events Conditions
12:00 AM 38 °F 37 °F 95% 29.39 in - South 4.5 mph - -  
1:00 AM 38 °F 37 °F 95% 29.39 in - Calm Calm - -  
2:00 AM 37 °F 36 °F 95% 29.40 in - Calm Calm - -  
3:00 AM 39 °F 36 °F 84% 29.43 in - NW 4.5 mph - -  
4:00 AM 40 °F 35 °F 77% 29.45 in - NW 6.7 mph - -  
5:00 AM 39 °F 35 °F 80% 29.49 in - NW 6.7 mph - -  
6:00 AM 38 °F 33 °F 75% 29.52 in - NW 4.5 mph - -  
7:00 AM 39 °F 33 °F 71% 29.57 in - NW 4.5 mph - -  
8:00 AM 39 °F 32 °F 68% 29.60 in - WNW 4.5 mph - -  
9:00 AM 40 °F 33 °F 69% 29.65 in - SW 4.5 mph - -  
10:00 AM 42 °F 32 °F 59% 29.70 in - 2.2 mph - -  
11:00 AM 43 °F 31 °F 52% 29.73 in - 6.7 mph - -  
12:00 PM 46 °F 33 °F 49% 29.74 in - 6.7 mph - -  
1:00 PM 45 °F 34 °F 54% 29.75 in - 4.5 mph - -  
2:00 PM 45 °F 34 °F 55% 29.77 in - WSW 4.5 mph - -  
3:00 PM 46 °F 33 °F 50% 29.78 in - 6.7 mph - -  
4:00 PM 44 °F 34 °F 58% 29.83 in - 6.7 mph - -  
5:00 PM 42 °F 36 °F 72% 29.85 in - 2.2 mph - -  
6:00 PM 42 °F 36 °F 71% 29.87 in - 2.2 mph - -  
7:00 PM 42 °F 36 °F 70% 29.91 in - 2.2 mph - -  
8:00 PM 42 °F 36 °F 71% 29.94 in - 4.5 mph - -  
9:00 PM 40 °F 37 °F 87% 29.96 in - 2.2 mph - -  
10:00 PM 41 °F 36 °F 77% 29.99 in - 4.5 mph - -  
11:00 PM 40 °F 36 °F 82% 30.01 in - Calm Calm - -